MIDAS 4 DEB, 195

Orbit data source: Space-Track

MIDAS 4 DEB, 195 is space debris in LEO originally from a launch on Sat, 21 Oct 1961 UTC launched from the Air Force Western Test Range (AFWTR). Debris objects in space refer to the collection of defunct objects orbiting the Earth. Examples of debris include non-operational satellites, rocket bodies, and fragments generated from explosions, collisions, or faulty payload assembly.

Loading next visibility...
Identifier
195, 1961-028D
Orbit
LEO
Country
Flag of USUS
Related business
Manufacturer
Unknown
Mission
Spacecraft
Bus & Motor
Unknown
Mass
~10 kg wet, ~10 kg dry
Launch date (UTC)
1961-10-21 (64 years ago)
Launch vehicle
Unknown
Launch site
Air Force Western Test Range (AFWTR)
Object type
Payload
Rocket body
Debris
Shape & HBR
Unknown
Radar Cross Section
Medium (>0.1 m² and <1 m²)

Expand to show TLE details & history
Last TLE update: 2 days ago

TLE from 2 days ago
0 MIDAS 4 DEB
1 00195U 61028D   25257.06579442 -.00000016  00000-0 -55845-2 0  9998
2 00195  95.8494 146.5915 0128853 341.9852  17.6460  8.65621956 19132
Epoch: 2025-09-14T01:34Z
TLE epoch observation values (Epoch: 2025-09-14T01:34:44.637Z)
Latitude
0.00003°
Longitude
129.61536°
Altitude
3,520.71 km
Speed
6.385 km/s
True Right ascension
09h 46m 21s
True Declination
0° 00' 00"
Sunlit
Object was in daylight at epoch
Visualization orbit readout
Latitude
Unknown
Longitude
Unknown
Altitude
Unknown
Speed
Unknown
Apparent Right ascension
Unknown
Apparent Declination
Unknown
Sunlit
N/A
Visualization observer readout
Local Sidereal Time
17:23:49
Azimuth
Unknown
Elevation
Unknown
Doppler factor
Unknown
Orbital elements
Apogee altitude
3,768.401 km
Perigee altitude
3,510.245 km
Semi-major axis
10,017.46 km
Eccentricity
0.01289
Inclination
95.8494°
RAAN
146.5915°
Arg. of periapsis
341.9852°
True anomaly
18.10056°
Mean anomaly
17.646°
Eccentric anomaly
17.87258°
Mean motion
2.16474 °/min
Orbital period
166.3 mins
BSTAR
-0.0055845
Loading maneuver chart data...
Computing Atmospheric mass density...
Loading historical data...
Loading historical data...
Loading historical data...
Loading historical data...
Loading historical data...
Loading historical data...
Loading historical data...

Documentation

Showing up to 5 results
|